VOZ616 YBMK-YBBN

Flight info

Callsign VOZ616
Flight time 1h 9m
Altitude 37000
Route DCT MUNAR Y61 RUROX Y177 SMOKA DCT
Aircraft B738/M-SDE3FGHIM3RWZ/LB1

Departure

Time 2026-04-14 09:07
Airport Mackay Airport (YBMK)

Arrival

Time 2026-04-14 10:17
Airport Brisbane International Airport (YBBN)
Time Latitude Longitude Altitude Speed Heading
2026-04-14 08:28 -21.17571 149.18249 27 ft 0 kts 288°
2026-04-14 09:01 -21.17566 149.18243 27 ft 2 kts 316°
2026-04-14 09:02 -21.17550 149.18253 28 ft 4 kts 46°
2026-04-14 09:02 -21.17517 149.18265 25 ft 6 kts 343°
2026-04-14 09:02 -21.17488 149.18246 25 ft 2 kts 327°
2026-04-14 09:02 -21.17476 149.18240 25 ft 2 kts 337°
2026-04-14 09:03 -21.17460 149.18241 27 ft 4 kts 17°
2026-04-14 09:03 -21.17435 149.18267 26 ft 7 kts 56°
2026-04-14 09:03 -21.17401 149.18325 27 ft 12 kts 58°
2026-04-14 09:03 -21.17347 149.18417 25 ft 16 kts 56°
2026-04-14 09:04 -21.17287 149.18399 24 ft 10 kts 317°
2026-04-14 09:04 -21.17221 149.18354 24 ft 13 kts 328°
2026-04-14 09:04 -21.17132 149.18294 24 ft 17 kts 328°
2026-04-14 09:04 -21.17020 149.18219 27 ft 21 kts 328°
2026-04-14 09:05 -21.16896 149.18135 27 ft 21 kts 328°
2026-04-14 09:05 -21.16772 149.18051 23 ft 21 kts 327°
2026-04-14 09:05 -21.16654 149.17972 26 ft 20 kts 327°
2026-04-14 09:05 -21.16538 149.17893 24 ft 19 kts 328°
2026-04-14 09:06 -21.16425 149.17818 26 ft 19 kts 328°
2026-04-14 09:06 -21.16357 149.17739 24 ft 7 kts 336°
2026-04-14 09:06 -21.16334 149.17758 28 ft 4 kts 127°
2026-04-14 09:06 -21.16353 149.17770 27 ft 5 kts 148°
2026-04-14 09:07 -21.16449 149.17835 24 ft 45 kts 149°
2026-04-14 09:07 -21.16928 149.18159 25 ft 115 kts 148°
2026-04-14 09:07 -21.18051 149.18918 386 ft 153 kts 148°
2026-04-14 09:07 -21.18641 149.19315 977 ft 147 kts 144°
2026-04-14 09:08 -21.19529 149.19922 1650 ft 158 kts 145°
2026-04-14 09:08 -21.20545 149.20625 2024 ft 194 kts 144°
2026-04-14 09:08 -21.21771 149.21474 2365 ft 220 kts 144°
2026-04-14 09:08 -21.23136 149.22408 2749 ft 245 kts 147°
2026-04-14 09:09 -21.24787 149.23053 3517 ft 260 kts 166°
2026-04-14 09:09 -21.26566 149.23406 4587 ft 261 kts 166°
2026-04-14 09:09 -21.28386 149.23774 5474 ft 270 kts 166°
2026-04-14 09:09 -21.30246 149.24158 6429 ft 275 kts 167°
2026-04-14 09:10 -21.32136 149.24557 7303 ft 280 kts 168°
2026-04-14 09:10 -21.34071 149.24972 8152 ft 286 kts 168°
2026-04-14 09:10 -21.36044 149.25400 9026 ft 292 kts 168°
2026-04-14 09:10 -21.38052 149.25838 9914 ft 297 kts 169°
2026-04-14 09:11 -21.40103 149.26287 10609 ft 308 kts 169°
2026-04-14 09:11 -21.42296 149.26767 10931 ft 331 kts 169°
2026-04-14 09:11 -21.44572 149.27268 11686 ft 336 kts 169°
2026-04-14 09:11 -21.46870 149.27775 12510 ft 339 kts 169°
2026-04-14 09:12 -21.49190 149.28287 13323 ft 342 kts 168°
2026-04-14 09:12 -21.51500 149.28977 14098 ft 346 kts 161°
2026-04-14 09:12 -21.53744 149.29875 14745 ft 352 kts 159°
2026-04-14 09:12 -21.56042 149.30872 15357 ft 359 kts 159°
2026-04-14 09:13 -21.58370 149.31900 16028 ft 363 kts 159°
2026-04-14 09:13 -21.60722 149.32933 16718 ft 367 kts 159°
2026-04-14 09:13 -21.63110 149.33970 17371 ft 372 kts 160°
2026-04-14 09:13 -21.65539 149.35012 18006 ft 378 kts 160°
2026-04-14 09:14 -21.67995 149.36058 18595 ft 383 kts 160°
2026-04-14 09:14 -21.70487 149.37113 19167 ft 386 kts 160°
2026-04-14 09:14 -21.72994 149.38172 19759 ft 389 kts 160°
2026-04-14 09:14 -21.75526 149.39239 20340 ft 392 kts 160°
2026-04-14 09:15 -21.78078 149.40314 20896 ft 396 kts 160°
2026-04-14 09:15 -21.80655 149.41399 21450 ft 399 kts 160°
2026-04-14 09:15 -21.83254 149.42493 21987 ft 403 kts 161°
2026-04-14 09:15 -21.85874 149.43597 22519 ft 406 kts 161°
2026-04-14 09:16 -21.88523 149.44714 23043 ft 410 kts 161°
2026-04-14 09:16 -21.91189 149.45837 23514 ft 414 kts 161°
2026-04-14 09:16 -21.93887 149.46975 23950 ft 418 kts 161°
2026-04-14 09:16 -21.96571 149.48108 24345 ft 421 kts 161°
2026-04-14 09:17 -21.99308 149.49264 24753 ft 424 kts 161°
2026-04-14 09:17 -22.02064 149.50428 25150 ft 427 kts 161°
2026-04-14 09:17 -22.04844 149.51602 25539 ft 431 kts 161°
2026-04-14 09:17 -22.07680 149.52801 25929 ft 434 kts 161°
2026-04-14 09:18 -22.10461 149.53977 26301 ft 437 kts 161°
2026-04-14 09:18 -22.13303 149.55180 26675 ft 440 kts 161°
2026-04-14 09:18 -22.16164 149.56391 27046 ft 443 kts 161°
2026-04-14 09:18 -22.19051 149.57613 27413 ft 447 kts 161°
2026-04-14 09:19 -22.21951 149.58842 27777 ft 450 kts 161°
2026-04-14 09:19 -22.24879 149.60082 28112 ft 453 kts 161°
2026-04-14 09:19 -22.27825 149.61331 28450 ft 457 kts 162°
2026-04-14 09:19 -22.30793 149.62591 28790 ft 460 kts 162°
2026-04-14 09:20 -22.33783 149.63860 29114 ft 463 kts 162°
2026-04-14 09:20 -22.36787 149.65135 29443 ft 466 kts 162°
2026-04-14 09:20 -22.39814 149.66421 29763 ft 469 kts 162°
2026-04-14 09:20 -22.42856 149.67714 30073 ft 472 kts 162°
2026-04-14 09:21 -22.45921 149.69018 30344 ft 474 kts 162°
2026-04-14 09:21 -22.49001 149.70328 30605 ft 477 kts 162°
2026-04-14 09:21 -22.52095 149.71645 30885 ft 479 kts 162°
2026-04-14 09:21 -22.55199 149.72966 31150 ft 481 kts 162°
2026-04-14 09:22 -22.58327 149.74299 31404 ft 483 kts 162°
2026-04-14 09:22 -22.61461 149.75635 31649 ft 486 kts 162°
2026-04-14 09:22 -22.64612 149.76979 31887 ft 488 kts 162°
2026-04-14 09:22 -22.67780 149.78330 32161 ft 489 kts 162°
2026-04-14 09:23 -22.70944 149.79682 32512 ft 489 kts 163°
2026-04-14 09:23 -22.74107 149.81034 32877 ft 488 kts 163°
2026-04-14 09:23 -22.77269 149.82386 33197 ft 488 kts 163°
2026-04-14 09:23 -22.80398 149.83724 33512 ft 489 kts 163°
2026-04-14 09:24 -22.83560 149.85076 33860 ft 489 kts 163°
2026-04-14 09:24 -22.86720 149.86429 34192 ft 489 kts 163°
2026-04-14 09:24 -22.89883 149.87783 34496 ft 488 kts 163°
2026-04-14 09:24 -22.93036 149.89134 34823 ft 486 kts 163°
2026-04-14 09:25 -22.96178 149.90482 35216 ft 484 kts 164°
2026-04-14 09:25 -22.99302 149.91823 35554 ft 482 kts 163°
2026-04-14 09:25 -23.02421 149.93162 35836 ft 482 kts 164°
2026-04-14 09:25 -23.05541 149.94500 36125 ft 482 kts 164°
2026-04-14 09:26 -23.08653 149.95836 36464 ft 480 kts 164°
2026-04-14 09:26 -23.11753 149.97168 36811 ft 478 kts 164°
2026-04-14 09:26 -23.14845 149.98498 37129 ft 477 kts 164°
2026-04-14 09:26 -23.17947 149.99830 37094 ft 482 kts 164°
2026-04-14 09:27 -23.24156 150.02500 37107 ft 481 kts 164°
2026-04-14 09:27 -23.30338 150.05168 37113 ft 474 kts 164°
2026-04-14 09:28 -23.36466 150.07811 37121 ft 474 kts 164°
2026-04-14 09:28 -23.42590 150.10453 37122 ft 473 kts 164°
2026-04-14 09:29 -23.48720 150.13101 37117 ft 474 kts 164°
2026-04-14 09:29 -23.54859 150.15756 37116 ft 475 kts 164°
2026-04-14 09:30 -23.61006 150.18417 37128 ft 475 kts 165°
2026-04-14 09:30 -23.67124 150.21069 37123 ft 476 kts 165°
2026-04-14 09:31 -23.73289 150.23744 37122 ft 477 kts 164°
2026-04-14 09:31 -23.79459 150.26424 37126 ft 478 kts 165°
2026-04-14 09:32 -23.85648 150.29114 37121 ft 479 kts 165°
2026-04-14 09:33 -23.94935 150.33158 37123 ft 479 kts 165°
2026-04-14 09:33 -24.01133 150.35860 37123 ft 479 kts 165°
2026-04-14 09:34 -24.07327 150.38563 37130 ft 479 kts 165°
2026-04-14 09:34 -24.13533 150.41273 37122 ft 480 kts 165°
2026-04-14 09:35 -24.19697 150.43969 37131 ft 479 kts 165°
2026-04-14 09:35 -24.25891 150.46681 37133 ft 479 kts 165°
2026-04-14 09:36 -24.32083 150.49395 37127 ft 479 kts 165°
2026-04-14 09:36 -24.38271 150.52109 37136 ft 479 kts 165°
2026-04-14 09:37 -24.44458 150.54826 37129 ft 479 kts 165°
2026-04-14 09:37 -24.50588 150.57749 37121 ft 486 kts 155°
2026-04-14 09:38 -24.56288 150.61831 37129 ft 490 kts 152°
2026-04-14 09:38 -24.61915 150.66055 37135 ft 490 kts 152°
2026-04-14 09:39 -24.67530 150.70223 37132 ft 489 kts 152°
2026-04-14 09:39 -24.73202 150.74386 37138 ft 489 kts 152°
2026-04-14 09:40 -24.78868 150.78530 37138 ft 489 kts 152°
2026-04-14 09:40 -24.84536 150.82680 37136 ft 489 kts 152°
2026-04-14 09:41 -24.90191 150.86830 37153 ft 488 kts 152°
2026-04-14 09:41 -24.95849 150.90987 37147 ft 488 kts 152°
2026-04-14 09:42 -25.01500 150.95144 37161 ft 488 kts 153°
2026-04-14 09:42 -25.07117 150.99280 37152 ft 488 kts 153°
2026-04-14 09:43 -25.12773 151.03451 37141 ft 488 kts 153°
2026-04-14 09:43 -25.18427 151.07624 37148 ft 488 kts 153°
2026-04-14 09:44 -25.24070 151.11793 37143 ft 488 kts 153°
2026-04-14 09:44 -25.29713 151.15968 37157 ft 487 kts 153°
2026-04-14 09:45 -25.35350 151.20143 37148 ft 488 kts 153°
2026-04-14 09:45 -25.40950 151.24295 37149 ft 488 kts 153°
2026-04-14 09:46 -25.46587 151.28478 37145 ft 487 kts 153°
2026-04-14 09:46 -25.52217 151.32661 37157 ft 487 kts 153°
2026-04-14 09:47 -25.57841 151.36850 37154 ft 487 kts 153°
2026-04-14 09:47 -25.63466 151.41040 37154 ft 487 kts 153°
2026-04-14 09:48 -25.69090 151.45236 37162 ft 487 kts 153°
2026-04-14 09:48 -25.74697 151.49455 37159 ft 489 kts 150°
2026-04-14 09:49 -25.79886 151.54355 37168 ft 495 kts 144°
2026-04-14 09:49 -25.84959 151.59537 37055 ft 497 kts 143°
2026-04-14 09:49 -25.87518 151.62141 36553 ft 499 kts 143°
2026-04-14 09:50 -25.90077 151.64728 36050 ft 497 kts 144°
2026-04-14 09:50 -25.92644 151.67301 35460 ft 497 kts 144°
2026-04-14 09:50 -25.95224 151.69869 34833 ft 499 kts 145°
2026-04-14 09:50 -25.97821 151.72445 34195 ft 502 kts 145°
2026-04-14 09:51 -26.00435 151.75038 33467 ft 505 kts 144°
2026-04-14 09:51 -26.03053 151.77638 32780 ft 506 kts 144°
2026-04-14 09:51 -26.05681 151.80253 32067 ft 507 kts 144°
2026-04-14 09:51 -26.08314 151.82877 31344 ft 509 kts 144°
2026-04-14 09:52 -26.10961 151.85518 30614 ft 511 kts 144°
2026-04-14 09:52 -26.13566 151.88121 30052 ft 508 kts 143°
2026-04-14 09:52 -26.16186 151.90743 29426 ft 504 kts 143°
2026-04-14 09:52 -26.18777 151.93338 28851 ft 498 kts 143°
2026-04-14 09:53 -26.21342 151.95907 28292 ft 492 kts 143°
2026-04-14 09:53 -26.23845 151.98418 27728 ft 477 kts 143°
2026-04-14 09:53 -26.26275 152.00859 27205 ft 463 kts 143°
2026-04-14 09:53 -26.28655 152.03244 26710 ft 459 kts 143°
2026-04-14 09:54 -26.31029 152.05620 26207 ft 455 kts 143°
2026-04-14 09:54 -26.31793 152.06385 26039 ft 454 kts 143°
2026-04-14 09:54 -26.34562 152.09157 25427 ft 450 kts 143°
2026-04-14 09:54 -26.36856 152.11457 24910 ft 447 kts 143°
2026-04-14 09:55 -26.39159 152.13769 24400 ft 444 kts 143°
2026-04-14 09:55 -26.41448 152.16069 23884 ft 440 kts 143°
2026-04-14 09:55 -26.43689 152.18326 23294 ft 427 kts 143°
2026-04-14 09:55 -26.45855 152.20511 22761 ft 413 kts 143°
2026-04-14 09:56 -26.47954 152.22627 22268 ft 401 kts 143°
2026-04-14 09:56 -26.50012 152.24701 21803 ft 396 kts 143°
2026-04-14 09:56 -26.51360 152.26056 21493 ft 394 kts 143°
2026-04-14 09:56 -26.54074 152.28786 20871 ft 391 kts 143°
2026-04-14 09:57 -26.56086 152.30810 20389 ft 389 kts 143°
2026-04-14 09:57 -26.57413 152.32146 20116 ft 386 kts 142°
2026-04-14 09:57 -26.59404 152.34158 19625 ft 386 kts 142°
2026-04-14 09:57 -26.61398 152.36174 19151 ft 385 kts 142°
2026-04-14 09:58 -26.63381 152.38180 18677 ft 384 kts 142°
2026-04-14 09:58 -26.65353 152.40192 18154 ft 383 kts 142°
2026-04-14 09:58 -26.67309 152.42208 17677 ft 381 kts 141°
2026-04-14 09:58 -26.69227 152.44191 17201 ft 378 kts 141°
2026-04-14 09:59 -26.71148 152.46179 16728 ft 375 kts 141°
2026-04-14 09:59 -26.73059 152.48154 16263 ft 373 kts 141°
2026-04-14 09:59 -26.74958 152.50117 15799 ft 370 kts 140°
2026-04-14 09:59 -26.76842 152.52065 15337 ft 367 kts 140°
2026-04-14 10:00 -26.78715 152.54002 14882 ft 365 kts 140°
2026-04-14 10:00 -26.80575 152.55924 14424 ft 363 kts 140°
2026-04-14 10:00 -26.82423 152.57836 13945 ft 361 kts 139°
2026-04-14 10:00 -26.84259 152.59737 13457 ft 358 kts 139°
2026-04-14 10:01 -26.86080 152.61623 12982 ft 355 kts 139°
2026-04-14 10:01 -26.87881 152.63489 12511 ft 348 kts 139°
2026-04-14 10:01 -26.89615 152.65287 12036 ft 341 kts 139°
2026-04-14 10:01 -26.91351 152.67087 11600 ft 339 kts 138°
2026-04-14 10:02 -26.93076 152.68877 11160 ft 336 kts 138°
2026-04-14 10:02 -26.94792 152.70658 10609 ft 338 kts 138°
2026-04-14 10:02 -26.96473 152.72404 10412 ft 320 kts 138°
2026-04-14 10:02 -26.98060 152.74038 10253 ft 300 kts 138°
2026-04-14 10:03 -26.99639 152.75442 10103 ft 281 kts 154°
2026-04-14 10:03 -27.01461 152.76107 9998 ft 273 kts 169°
2026-04-14 10:03 -27.03365 152.76408 9687 ft 279 kts 173°
2026-04-14 10:03 -27.05313 152.76632 9373 ft 281 kts 174°
2026-04-14 10:04 -27.07250 152.76863 9051 ft 279 kts 174°
2026-04-14 10:04 -27.09178 152.77111 8736 ft 278 kts 173°
2026-04-14 10:04 -27.11092 152.77368 8420 ft 276 kts 173°
2026-04-14 10:04 -27.12998 152.77628 8102 ft 276 kts 173°
2026-04-14 10:05 -27.14874 152.77989 7900 ft 272 kts 166°
2026-04-14 10:05 -27.16693 152.78566 7717 ft 271 kts 165°
2026-04-14 10:05 -27.18506 152.79159 7545 ft 272 kts 165°
2026-04-14 10:05 -27.20340 152.79741 7367 ft 275 kts 165°
2026-04-14 10:06 -27.22170 152.80312 7197 ft 277 kts 165°
2026-04-14 10:06 -27.24055 152.80889 7013 ft 277 kts 166°
2026-04-14 10:06 -27.25882 152.81439 6830 ft 274 kts 166°
2026-04-14 10:06 -27.27714 152.81988 6648 ft 270 kts 167°
2026-04-14 10:07 -27.29521 152.82530 6471 ft 268 kts 166°
2026-04-14 10:07 -27.31321 152.83071 6293 ft 267 kts 166°
2026-04-14 10:07 -27.33081 152.83714 6123 ft 266 kts 161°
2026-04-14 10:07 -27.34811 152.84459 5945 ft 266 kts 160°
2026-04-14 10:08 -27.36534 152.85217 5778 ft 266 kts 160°
2026-04-14 10:08 -27.38260 152.85973 5600 ft 266 kts 160°
2026-04-14 10:08 -27.39988 152.86725 5428 ft 267 kts 160°
2026-04-14 10:08 -27.41723 152.87476 5260 ft 267 kts 160°
2026-04-14 10:09 -27.43459 152.88225 5094 ft 268 kts 160°
2026-04-14 10:09 -27.45206 152.88976 4911 ft 269 kts 160°
2026-04-14 10:09 -27.46958 152.89728 4736 ft 270 kts 160°
2026-04-14 10:09 -27.48702 152.90480 4552 ft 265 kts 159°
2026-04-14 10:10 -27.50406 152.91214 4378 ft 259 kts 159°
2026-04-14 10:10 -27.52071 152.91929 4210 ft 253 kts 159°
2026-04-14 10:10 -27.53699 152.92636 4046 ft 248 kts 158°
2026-04-14 10:10 -27.55288 152.93330 3886 ft 242 kts 158°
2026-04-14 10:11 -27.56734 152.94233 3713 ft 236 kts 133°
2026-04-14 10:11 -27.57510 152.95773 3574 ft 221 kts 103°
2026-04-14 10:11 -27.57666 152.97438 3442 ft 209 kts 88°
2026-04-14 10:11 -27.57627 152.99047 3329 ft 200 kts 86°
2026-04-14 10:12 -27.57574 153.00546 3214 ft 191 kts 84°
2026-04-14 10:12 -27.57152 153.01912 3050 ft 186 kts 48°
2026-04-14 10:12 -27.56080 153.02716 3047 ft 188 kts 24°
2026-04-14 10:12 -27.54903 153.03378 3011 ft 189 kts 28°
2026-04-14 10:13 -27.53759 153.04064 2916 ft 184 kts 28°
2026-04-14 10:13 -27.52634 153.04720 2702 ft 180 kts 28°
2026-04-14 10:13 -27.51530 153.05356 2458 ft 175 kts 28°
2026-04-14 10:13 -27.50479 153.05960 2240 ft 163 kts 28°
2026-04-14 10:14 -27.49502 153.06520 2029 ft 153 kts 29°
2026-04-14 10:14 -27.48580 153.07050 1828 ft 146 kts 29°
2026-04-14 10:14 -27.47693 153.07561 1649 ft 141 kts 29°
2026-04-14 10:14 -27.46831 153.08055 1454 ft 137 kts 29°
2026-04-14 10:15 -27.45980 153.08541 1286 ft 138 kts 28°
2026-04-14 10:15 -27.45133 153.09035 1101 ft 140 kts 29°
2026-04-14 10:15 -27.44257 153.09537 920 ft 142 kts 28°
2026-04-14 10:15 -27.43371 153.10044 719 ft 144 kts 28°
2026-04-14 10:16 -27.42485 153.10553 541 ft 143 kts 27°
2026-04-14 10:16 -27.41596 153.11052 364 ft 143 kts 29°
2026-04-14 10:16 -27.40730 153.11565 166 ft 137 kts 27°
2026-04-14 10:16 -27.39900 153.12038 22 ft 127 kts 28°
2026-04-14 10:17 -27.39308 153.12378 19 ft 64 kts 26°
2026-04-14 10:17 -27.39038 153.12534 18 ft 37 kts 25°
2026-04-14 10:17 -27.38806 153.12641 22 ft 35 kts 15°
2026-04-14 10:17 -27.38597 153.12658 21 ft 21 kts 357°
2026-04-14 10:18 -27.38373 153.12600 21 ft 10 kts 285°
2026-04-14 10:18 -27.38396 153.12535 22 ft 9 kts 220°
2026-04-14 10:18 -27.38453 153.12499 20 ft 9 kts 206°
2026-04-14 10:19 -27.38519 153.12464 22 ft 13 kts 205°
2026-04-14 10:19 -27.38613 153.12411 20 ft 18 kts 207°
2026-04-14 10:19 -27.38737 153.12338 21 ft 23 kts 206°
2026-04-14 10:19 -27.38834 153.12284 22 ft 12 kts 207°
2026-04-14 10:20 -27.38897 153.12223 20 ft 13 kts 257°
2026-04-14 10:20 -27.38872 153.12132 20 ft 12 kts 271°
2026-04-14 10:20 -27.38902 153.12055 22 ft 10 kts 236°
2026-04-14 10:20 -27.38914 153.12008 20 ft 6 kts 320°
2026-04-14 10:21 -27.38888 153.11996 21 ft 0 kts 336°
2026-04-14 10:21 -27.38879 153.11991 20 ft 0 kts 334°